Time,TemperatureF,DewpointF,PressureIn,WindDirection,WindDirectionDegrees,WindSpeedMPH,WindSpeedGustMPH,Humidity,HourlyPrecipIn,Conditions,Clouds,dailyrainin,SolarRadiationWatts/m^2,SoftwareType,DateUTC
2013-10-03 00:01:00,58.0,58.0,-100.00,NE,43,0.0,1.0,100,0.00,,,0.00,0.000000,,2013-10-03 04:01:00,
2013-10-03 00:44:00,58.0,58.0,-100.00,NE,43,0.0,1.0,100,0.00,,,0.00,0.000000,,2013-10-03 04:44:00,
2013-10-03 00:53:00,58.0,58.0,-100.00,NE,43,0.0,1.0,100,0.00,,,0.00,0.000000,,2013-10-03 04:53:00,
2013-10-03 01:01:00,56.0,56.0,-100.00,NE,39,3.0,4.0,100,0.00,,,0.00,0.000000,,2013-10-03 05:01:00,
2013-10-03 01:23:00,56.0,56.0,-100.00,NE,39,3.0,4.0,100,0.00,,,0.00,0.000000,,2013-10-03 05:23:00,
2013-10-03 01:33:00,56.0,56.0,-100.00,NE,39,3.0,4.0,100,0.00,,,0.00,0.000000,,2013-10-03 05:33:00,
2013-10-03 01:43:00,56.0,56.0,-100.00,NE,39,3.0,4.0,100,0.00,,,0.00,0.000000,,2013-10-03 05:43:00,
2013-10-03 01:52:00,56.0,56.0,-100.00,NE,39,3.0,4.0,100,0.00,,,0.00,0.000000,,2013-10-03 05:52:00,
2013-10-03 02:01:00,55.0,55.0,-100.00,NE,38,2.0,4.0,100,0.00,,,0.00,0.000000,,2013-10-03 06:01:00,
2013-10-03 02:22:00,55.0,55.0,-100.00,NE,38,2.0,4.0,100,0.00,,,0.00,0.000000,,2013-10-03 06:22:00,
2013-10-03 02:32:00,55.0,55.0,-100.00,NE,38,2.0,4.0,100,0.00,,,0.00,0.000000,,2013-10-03 06:32:00,
2013-10-03 02:42:00,55.0,55.0,-100.00,NE,38,2.0,4.0,100,0.00,,,0.00,0.000000,,2013-10-03 06:42:00,
2013-10-03 02:52:00,55.0,55.0,-100.00,NE,38,2.0,4.0,100,0.00,,,0.00,0.000000,,2013-10-03 06:52:00,
2013-10-03 03:01:00,55.0,55.0,-100.00,NE,50,2.0,3.0,100,0.00,,,0.00,0.000000,,2013-10-03 07:01:00,
2013-10-03 03:22:00,55.0,55.0,-100.00,NE,50,2.0,3.0,100,0.00,,,0.00,0.000000,,2013-10-03 07:22:00,
2013-10-03 03:32:00,55.0,55.0,-100.00,NE,50,2.0,3.0,100,0.00,,,0.00,0.000000,,2013-10-03 07:32:00,
2013-10-03 03:42:00,55.0,55.0,-100.00,NE,50,2.0,3.0,100,0.00,,,0.00,0.000000,,2013-10-03 07:42:00,
2013-10-03 03:52:00,55.0,55.0,-100.00,NE,50,2.0,3.0,100,0.00,,,0.00,0.000000,,2013-10-03 07:52:00,
2013-10-03 04:01:00,54.0,54.0,-100.00,NE,41,2.0,3.0,100,0.00,,,0.00,0.000000,,2013-10-03 08:01:00,
2013-10-03 04:22:00,54.0,54.0,-100.00,NE,41,2.0,3.0,100,0.00,,,0.00,0.000000,,2013-10-03 08:22:00,
2013-10-03 04:32:00,54.0,54.0,-100.00,NE,41,2.0,3.0,100,0.00,,,0.00,0.000000,,2013-10-03 08:32:00,
2013-10-03 04:42:00,54.0,54.0,-100.00,NE,41,2.0,3.0,100,0.00,,,0.00,0.000000,,2013-10-03 08:42:00,
2013-10-03 04:52:00,54.0,54.0,-100.00,NE,41,2.0,3.0,100,0.00,,,0.00,0.000000,,2013-10-03 08:52:00,
2013-10-03 05:01:00,54.0,54.0,-100.00,NE,40,2.0,4.0,100,0.00,,,0.00,0.000000,,2013-10-03 09:01:00,
2013-10-03 05:43:00,54.0,54.0,-100.00,NE,40,2.0,4.0,100,0.00,,,0.00,0.000000,,2013-10-03 09:43:00,
2013-10-03 05:53:00,54.0,54.0,-100.00,NE,40,2.0,4.0,100,0.00,,,0.00,0.000000,,2013-10-03 09:53:00,
2013-10-03 06:01:00,53.0,53.0,-100.00,NE,38,4.0,4.0,100,0.00,,,0.00,0.000000,,2013-10-03 10:01:00,
2013-10-03 06:23:00,53.0,53.0,-100.00,NE,38,4.0,4.0,100,0.00,,,0.00,0.000000,,2013-10-03 10:23:00,
2013-10-03 06:33:00,53.0,53.0,-100.00,NE,38,4.0,4.0,100,0.00,,,0.00,0.000000,,2013-10-03 10:33:00,
2013-10-03 06:43:00,53.0,53.0,-100.00,NE,38,4.0,4.0,100,0.00,,,0.00,0.000000,,2013-10-03 10:43:00,
2013-10-03 06:52:00,53.0,53.0,-100.00,NE,38,4.0,4.0,100,0.00,,,0.00,0.000000,,2013-10-03 10:52:00,
2013-10-03 07:01:00,54.0,54.0,-100.00,NE,45,2.0,4.0,100,0.00,,,0.00,0.000000,,2013-10-03 11:01:00,
2013-10-03 07:23:00,54.0,54.0,-100.00,NE,45,2.0,4.0,100,0.00,,,0.00,0.000000,,2013-10-03 11:23:00,
2013-10-03 07:33:00,54.0,54.0,-100.00,NE,45,2.0,4.0,100,0.00,,,0.00,0.000000,,2013-10-03 11:33:00,
2013-10-03 07:42:00,54.0,54.0,-100.00,NE,45,2.0,4.0,100,0.00,,,0.00,0.000000,,2013-10-03 11:42:00,
2013-10-03 07:52:00,54.0,54.0,-100.00,NE,45,2.0,4.0,100,0.00,,,0.00,0.000000,,2013-10-03 11:52:00,
2013-10-03 08:01:00,54.0,54.0,-100.00,NE,41,3.0,4.0,100,0.00,,,0.00,20.000000,,2013-10-03 12:01:00,
2013-10-03 08:22:00,54.0,54.0,-100.00,NE,41,3.0,4.0,100,0.00,,,0.00,20.000000,,2013-10-03 12:22:00,
2013-10-03 08:32:00,54.0,54.0,-100.00,NE,41,3.0,4.0,100,0.00,,,0.00,20.000000,,2013-10-03 12:32:00,
2013-10-03 08:42:00,54.0,54.0,-100.00,NE,41,3.0,4.0,100,0.00,,,0.00,20.000000,,2013-10-03 12:42:00,
2013-10-03 08:52:00,54.0,54.0,-100.00,NE,41,3.0,4.0,100,0.00,,,0.00,20.000000,,2013-10-03 12:52:00,
2013-10-03 09:01:00,56.0,56.0,-100.00,NE,36,3.0,5.0,100,0.00,,,0.00,109.000000,,2013-10-03 13:01:00,
2013-10-03 09:42:00,56.0,56.0,-100.00,NE,36,3.0,5.0,100,0.00,,,0.00,109.000000,,2013-10-03 13:42:00,
2013-10-03 09:52:00,56.0,56.0,-100.00,NE,36,3.0,5.0,100,0.00,,,0.00,109.000000,,2013-10-03 13:52:00,
2013-10-03 10:01:00,60.0,60.0,-100.00,NE,41,2.0,4.0,100,0.00,,,0.00,269.000000,,2013-10-03 14:01:00,
2013-10-03 10:42:00,60.0,60.0,-100.00,NE,41,2.0,4.0,100,0.00,,,0.00,269.000000,,2013-10-03 14:42:00,
2013-10-03 10:52:00,60.0,60.0,-100.00,NE,41,2.0,4.0,100,0.00,,,0.00,269.000000,,2013-10-03 14:52:00,
2013-10-03 11:01:00,67.0,64.0,-100.00,ENE,58,1.0,4.0,91,0.00,,,0.00,514.000000,,2013-10-03 15:01:00,
2013-10-03 11:22:00,67.0,64.0,-100.00,ENE,58,1.0,4.0,91,0.00,,,0.00,514.000000,,2013-10-03 15:22:00,
2013-10-03 11:33:00,67.0,64.0,-100.00,ENE,58,1.0,4.0,91,0.00,,,0.00,514.000000,,2013-10-03 15:33:00,
2013-10-03 11:43:00,67.0,64.0,-100.00,ENE,58,1.0,4.0,91,0.00,,,0.00,514.000000,,2013-10-03 15:43:00,
2013-10-03 11:54:00,67.0,64.0,-100.00,ENE,58,1.0,4.0,91,0.00,,,0.00,514.000000,,2013-10-03 15:54:00,
2013-10-03 12:01:00,73.0,58.0,-100.00,West,261,3.0,5.0,60,0.00,,,0.00,684.000000,,2013-10-03 16:01:00,
2013-10-03 12:23:00,73.0,58.0,-100.00,West,261,3.0,5.0,60,0.00,,,0.00,684.000000,,2013-10-03 16:23:00,
2013-10-03 12:33:00,73.0,58.0,-100.00,West,261,3.0,5.0,60,0.00,,,0.00,684.000000,,2013-10-03 16:33:00,
2013-10-03 12:43:00,73.0,58.0,-100.00,West,261,3.0,5.0,60,0.00,,,0.00,684.000000,,2013-10-03 16:43:00,
2013-10-03 12:53:00,73.0,58.0,-100.00,West,261,3.0,5.0,60,0.00,,,0.00,684.000000,,2013-10-03 16:53:00,
2013-10-03 13:01:00,72.0,56.0,-100.00,SSW,195,3.0,6.0,58,0.00,,,0.00,617.000000,,2013-10-03 17:01:00,
2013-10-03 13:22:00,72.0,56.0,-100.00,SSW,195,3.0,6.0,58,0.00,,,0.00,617.000000,,2013-10-03 17:22:00,
2013-10-03 13:33:00,72.0,56.0,-100.00,SSW,195,3.0,6.0,58,0.00,,,0.00,617.000000,,2013-10-03 17:33:00,
2013-10-03 13:42:00,72.0,56.0,-100.00,SSW,195,3.0,6.0,58,0.00,,,0.00,617.000000,,2013-10-03 17:42:00,
2013-10-03 13:52:00,72.0,56.0,-100.00,SSW,195,3.0,6.0,58,0.00,,,0.00,617.000000,,2013-10-03 17:52:00,
2013-10-03 14:01:00,72.0,58.0,-100.00,SW,216,3.0,9.0,62,0.00,,,0.00,516.000000,,2013-10-03 18:01:00,
2013-10-03 14:22:00,72.0,58.0,-100.00,SW,216,3.0,9.0,62,0.00,,,0.00,516.000000,,2013-10-03 18:22:00,
2013-10-03 14:32:00,72.0,58.0,-100.00,SW,216,3.0,9.0,62,0.00,,,0.00,516.000000,,2013-10-03 18:32:00,
2013-10-03 14:42:00,72.0,58.0,-100.00,SW,216,3.0,9.0,62,0.00,,,0.00,516.000000,,2013-10-03 18:42:00,
2013-10-03 14:52:00,72.0,58.0,-100.00,SW,216,3.0,9.0,62,0.00,,,0.00,516.000000,,2013-10-03 18:52:00,
2013-10-03 15:01:00,75.0,60.0,-100.00,WSW,242,4.0,9.0,59,0.00,,,0.00,665.000000,,2013-10-03 19:01:00,
2013-10-03 15:22:00,75.0,60.0,-100.00,WSW,242,4.0,9.0,59,0.00,,,0.00,665.000000,,2013-10-03 19:22:00,
2013-10-03 15:32:00,75.0,60.0,-100.00,WSW,242,4.0,9.0,59,0.00,,,0.00,665.000000,,2013-10-03 19:32:00,
2013-10-03 15:42:00,75.0,60.0,-100.00,WSW,242,4.0,9.0,59,0.00,,,0.00,665.000000,,2013-10-03 19:42:00,
2013-10-03 15:53:00,75.0,60.0,-100.00,WSW,242,4.0,9.0,59,0.00,,,0.00,665.000000,,2013-10-03 19:53:00,
2013-10-03 16:01:00,74.0,57.0,-100.00,SW,215,3.0,7.0,56,0.00,,,0.00,445.000000,,2013-10-03 20:01:00,
2013-10-03 16:22:00,74.0,57.0,-100.00,SW,215,3.0,7.0,56,0.00,,,0.00,445.000000,,2013-10-03 20:22:00,
2013-10-03 16:32:00,74.0,57.0,-100.00,SW,215,3.0,7.0,56,0.00,,,0.00,445.000000,,2013-10-03 20:32:00,
2013-10-03 16:42:00,74.0,57.0,-100.00,SW,215,3.0,7.0,56,0.00,,,0.00,445.000000,,2013-10-03 20:42:00,
2013-10-03 16:52:00,74.0,57.0,-100.00,SW,215,3.0,7.0,56,0.00,,,0.00,445.000000,,2013-10-03 20:52:00,
2013-10-03 17:01:00,72.0,59.0,-100.00,SSW,194,2.0,7.0,64,0.00,,,0.00,292.000000,,2013-10-03 21:01:00,
2013-10-03 17:43:00,72.0,59.0,-100.00,SSW,194,2.0,7.0,64,0.00,,,0.00,292.000000,,2013-10-03 21:43:00,
2013-10-03 17:54:00,72.0,59.0,-100.00,SSW,194,2.0,7.0,64,0.00,,,0.00,292.000000,,2013-10-03 21:54:00,
2013-10-03 18:01:00,71.0,59.0,-100.00,SSE,166,2.0,6.0,66,0.00,,,0.00,236.000000,,2013-10-03 22:01:00,
2013-10-03 18:23:00,71.0,59.0,-100.00,SSE,166,2.0,6.0,66,0.00,,,0.00,236.000000,,2013-10-03 22:23:00,
2013-10-03 18:33:00,71.0,59.0,-100.00,SSE,166,2.0,6.0,66,0.00,,,0.00,236.000000,,2013-10-03 22:33:00,
2013-10-03 18:43:00,71.0,59.0,-100.00,SSE,166,2.0,6.0,66,0.00,,,0.00,236.000000,,2013-10-03 22:43:00,
2013-10-03 18:54:00,71.0,59.0,-100.00,SSE,166,2.0,6.0,66,0.00,,,0.00,236.000000,,2013-10-03 22:54:00,
2013-10-03 19:01:00,66.0,59.0,-100.00,SW,227,3.0,5.0,78,0.00,,,0.00,89.000000,,2013-10-03 23:01:00,
2013-10-03 19:43:00,66.0,59.0,-100.00,SW,227,3.0,5.0,78,0.00,,,0.00,89.000000,,2013-10-03 23:43:00,
2013-10-03 19:53:00,66.0,59.0,-100.00,SW,227,3.0,5.0,78,0.00,,,0.00,89.000000,,2013-10-03 23:53:00,
2013-10-03 20:01:00,64.0,60.0,-100.00,SSW,208,2.0,4.0,87,0.00,,,0.00,0.000000,,2013-10-04 00:01:00,
2013-10-03 20:22:00,64.0,60.0,-100.00,SSW,208,2.0,4.0,87,0.00,,,0.00,0.000000,,2013-10-04 00:22:00,
2013-10-03 20:32:00,64.0,60.0,-100.00,SSW,208,2.0,4.0,87,0.00,,,0.00,0.000000,,2013-10-04 00:32:00,
2013-10-03 20:42:00,64.0,60.0,-100.00,SSW,208,2.0,4.0,87,0.00,,,0.00,0.000000,,2013-10-04 00:42:00,
2013-10-03 20:52:00,64.0,60.0,-100.00,SSW,208,2.0,4.0,87,0.00,,,0.00,0.000000,,2013-10-04 00:52:00,
2013-10-03 21:01:00,63.0,60.0,-100.00,SSW,210,3.0,5.0,91,0.00,,,0.00,0.000000,,2013-10-04 01:01:00,
2013-10-03 21:22:00,63.0,60.0,-100.00,SSW,210,3.0,5.0,91,0.00,,,0.00,0.000000,,2013-10-04 01:22:00,
2013-10-03 21:32:00,63.0,60.0,-100.00,SSW,210,3.0,5.0,91,0.00,,,0.00,0.000000,,2013-10-04 01:32:00,
2013-10-03 21:42:00,63.0,60.0,-100.00,SSW,210,3.0,5.0,91,0.00,,,0.00,0.000000,,2013-10-04 01:42:00,
2013-10-03 21:52:00,63.0,60.0,-100.00,SSW,210,3.0,5.0,91,0.00,,,0.00,0.000000,,2013-10-04 01:52:00,
2013-10-03 22:01:00,63.0,62.0,-100.00,SW,214,2.0,4.0,96,0.00,,,0.00,0.000000,,2013-10-04 02:01:00,
2013-10-03 22:22:00,63.0,62.0,-100.00,SW,214,2.0,4.0,96,0.00,,,0.00,0.000000,,2013-10-04 02:22:00,
2013-10-03 22:33:00,63.0,62.0,-100.00,SW,214,2.0,4.0,96,0.00,,,0.00,0.000000,,2013-10-04 02:33:00,
2013-10-03 22:43:00,63.0,62.0,-100.00,SW,214,2.0,4.0,96,0.00,,,0.00,0.000000,,2013-10-04 02:43:00,
2013-10-03 22:52:00,63.0,62.0,-100.00,SW,214,2.0,4.0,96,0.00,,,0.00,0.000000,,2013-10-04 02:52:00,
2013-10-03 23:22:00,61.0,61.0,-100.00,NNE,29,2.0,4.0,100,0.00,,,-99.99,0.000000,,2013-10-04 03:22:00,
2013-10-03 23:34:00,61.0,61.0,-100.00,NNE,29,2.0,4.0,100,0.00,,,-99.99,0.000000,,2013-10-04 03:34:00,
2013-10-03 23:44:00,61.0,61.0,-100.00,NNE,29,2.0,4.0,100,0.00,,,-99.99,0.000000,,2013-10-04 03:44:00,